Location: Arroyo Retuerta
(40.5469°N, 4.3534°W)
Time: 11:54:51
(UTC+00:00)

Meteor 2-13 Rocket - Pass Details

Date: 01 June 2020
Orbit: 935 x 958 km, 82.5° (Epoch: 05 July)

Event Time Altitude Azimuth Distance (km) Brightness Sun altitude
Exits shadow 22:23:31 42° 170° (S) 1,338 4.7 -22.1°
Maximum altitude 22:25:43 75° 95° (E) 992 4.4 -22.2°
Drops below altitude 10° 22:31:53 10° 11° (N) 2,698 7.5 -22.8°
Sets 22:34:23 0° 10° (N) 3,647 8.4 -23.0°
